| time (UTC) | temp C | wind direction | speed KPH | gust KPH | rain 1hr cm | rain 24hr cm | rain mn cm | humidity % | barometer mb |
| 20260506231827 | 6 | 309 | 1.6 | 3.2 | 0.00 | 1.37 | 1.37 | 97 | 1010.5 |
| 20260506231324 | 6 | 304 | 0.0 | 0.0 | 0.00 | 1.37 | 1.37 | 97 | 1010.3 |
| 20260506230822 | 6 | 324 | 0.0 | 0.0 | 0.00 | 1.37 | 1.37 | 97 | 1010.3 |
| 20260506230318 | 6 | 194 | 1.6 | 1.6 | 0.00 | 1.37 | 1.37 | 97 | 1010.2 |
| 20260506225814 | 6 | 6 | 0.0 | 0.0 | 0.00 | 1.37 | 1.37 | 97 | 1010.3 |
| 20260506225312 | 6 | 304 | 1.6 | 3.2 | 0.00 | 1.37 | 1.37 | 97 | 1010.4 |
| 20260506224808 | 6 | 323 | 0.0 | 1.6 | 0.00 | 1.37 | 1.37 | 97 | 1010.3 |
| 20260506224306 | 6 | 10 | 1.6 | 3.2 | 0.00 | 1.37 | 1.37 | 97 | 1010.0 |
| 20260506223802 | 6 | 271 | 1.6 | 1.6 | 0.00 | 1.37 | 1.37 | 97 | 1010.3 |
| 20260506223257 | 7 | 321 | 0.0 | 0.0 | 0.00 | 1.37 | 1.37 | 97 | 1009.8 |
| 20260506222754 | 7 | 213 | 1.6 | 1.6 | 0.00 | 1.37 | 1.37 | 97 | 1010.1 |
| 20260506222250 | 7 | 291 | 0.0 | 1.6 | 0.00 | 1.37 | 1.37 | 97 | 1009.7 |
| 20260506221748 | 7 | 332 | 3.2 | 3.2 | 0.00 | 1.37 | 1.37 | 97 | 1009.8 |
| 20260506221246 | 7 | 7 | 1.6 | 1.6 | 0.00 | 1.37 | 1.37 | 97 | 1009.7 |
| 20260506220743 | 7 | 303 | 3.2 | 4.8 | 0.00 | 1.37 | 1.37 | 97 | 1009.8 |
| 20260506220237 | 7 | 11 | 3.2 | 3.2 | 0.00 | 1.37 | 1.37 | 97 | 1009.8 |
| 20260506215735 | 7 | 133 | 3.2 | 3.2 | 0.00 | 1.37 | 1.37 | 97 | 1009.6 |
| 20260506215230 | 7 | 67 | 4.8 | 4.8 | 0.00 | 1.37 | 1.37 | 98 | 1009.7 |
| 20260506214727 | 7 | 111 | 1.6 | 1.6 | 0.00 | 1.37 | 1.37 | 98 | 1009.7 |
| 20260506214224 | 7 | 170 | 6.4 | 8.0 | 0.00 | 1.37 | 1.37 | 98 | 1009.7 |
| 20260506213722 | 7 | 343 | 0.0 | 0.0 | 0.00 | 1.37 | 1.37 | 98 | 1009.6 |
| 20260506213219 | 7 | 327 | 0.0 | 0.0 | 0.00 | 1.37 | 1.37 | 98 | 1009.4 |
| 20260506212716 | 7 | 269 | 1.6 | 3.2 | 0.00 | 1.37 | 1.37 | 98 | 1009.4 |
| 20260506212212 | 7 | 169 | 3.2 | 3.2 | 0.00 | 1.37 | 1.37 | 98 | 1009.1 |
| 20260506211708 | 7 | 121 | 1.6 | 1.6 | 0.00 | 1.37 | 1.37 | 99 | 1009.1 |
| 20260506211204 | 7 | 124 | 4.8 | 4.8 | 0.00 | 1.37 | 1.37 | 99 | 1009.0 |
| 20260506210701 | 7 | 196 | 1.6 | 3.2 | 0.00 | 1.37 | 1.37 | 99 | 1008.8 |
| 20260506210158 | 7 | 33 | 1.6 | 3.2 | 0.00 | 1.37 | 1.37 | 99 | 1008.8 |
| 20260506205655 | 7 | 40 | 3.2 | 4.8 | 0.00 | 1.37 | 1.37 | 99 | 1008.6 |
| 20260506205150 | 7 | 113 | 1.6 | 1.6 | 0.00 | 1.37 | 1.37 | 99 | 1008.8 |
| 20260506204648 | 7 | 279 | 0.0 | 1.6 | 0.18 | 1.37 | 1.37 | 99 | 1008.5 |
| 20260506204144 | 7 | 19 | 1.6 | 3.2 | 0.18 | 1.37 | 1.37 | 99 | 1008.4 |
| 20260506203643 | 7 | 232 | 1.6 | 1.6 | 0.00 | 1.35 | 1.35 | 99 | 1008.3 |
| 20260506203139 | 7 | 43 | 1.6 | 3.2 | 0.00 | 1.35 | 1.35 | 99 | 1008.0 |
| 20260506202637 | 7 | 63 | 4.8 | 4.8 | 0.00 | 1.35 | 1.35 | 99 | 1008.0 |
| 20260506202133 | 7 | 350 | 3.2 | 4.8 | 0.00 | 1.35 | 1.35 | 99 | 1008.0 |
| 20260506201630 | 7 | 356 | 0.0 | 1.6 | 0.00 | 1.35 | 1.35 | 99 | 1008.0 |
| 20260506201127 | 7 | 34 | 6.4 | 9.7 | 0.00 | 1.35 | 1.35 | 99 | 1007.9 |
| 20260506200623 | 8 | 13 | 1.6 | 1.6 | 0.13 | 1.35 | 1.35 | 99 | 1008.2 |
| 20260506200120 | 7 | 354 | 0.0 | 1.6 | 0.13 | 1.35 | 1.35 | 99 | 1008.0 |
| 20260506195617 | 8 | 278 | 4.8 | 4.8 | 0.00 | 1.32 | 1.32 | 99 | 1007.8 |
| 20260506195113 | 8 | 23 | 3.2 | 4.8 | 0.00 | 1.32 | 1.32 | 99 | 1008.2 |
| 20260506194611 | 8 | 225 | 3.2 | 4.8 | 0.18 | 1.32 | 1.32 | 99 | 1007.8 |
| 20260506194107 | 8 | 270 | 1.6 | 3.2 | 0.18 | 1.32 | 1.32 | 99 | 1008.0 |
| 20260506193605 | 8 | 260 | 1.6 | 3.2 | 0.00 | 1.30 | 1.30 | 99 | 1007.9 |
| 20260506193102 | 8 | 283 | 6.4 | 8.0 | 0.13 | 1.30 | 1.30 | 99 | 1007.7 |
| 20260506192559 | 8 | 313 | 0.0 | 0.0 | 0.13 | 1.30 | 1.30 | 99 | 1007.5 |
| 20260506192054 | 8 | 300 | 0.0 | 0.0 | 0.00 | 1.27 | 1.27 | 99 | 1007.5 |
| 20260506191551 | 8 | 303 | 0.0 | 1.6 | 0.00 | 1.27 | 1.27 | 99 | 1007.7 |
| 20260506191047 | 8 | 329 | 0.0 | 1.6 | 0.18 | 1.27 | 1.27 | 99 | 1007.4 |
| 20260506190544 | 8 | 242 | 4.8 | 4.8 | 0.18 | 1.27 | 1.27 | 99 | 1007.3 |
| 20260506190041 | 8 | 241 | 1.6 | 3.2 | 0.00 | 1.24 | 1.24 | 99 | 1007.4 |
| 20260506185539 | 8 | 357 | 0.0 | 0.0 | 0.00 | 1.24 | 1.24 | 98 | 1007.5 |
| 20260506185035 | 8 | 336 | 0.0 | 1.6 | 0.00 | 1.24 | 1.24 | 99 | 1007.1 |
| 20260506184533 | 8 | 257 | 0.0 | 1.6 | 0.00 | 1.24 | 1.24 | 98 | 1007.3 |
| 20260506184030 | 8 | 314 | 1.6 | 3.2 | 0.00 | 1.24 | 1.24 | 99 | 1007.3 |
| 20260506183525 | 8 | 16 | 1.6 | 1.6 | 0.00 | 1.24 | 1.24 | 99 | 1007.3 |
| 20260506183022 | 8 | 339 | 0.0 | 0.0 | 0.00 | 1.24 | 1.24 | 99 | 1007.1 |
| 20260506182520 | 8 | 29 | 3.2 | 3.2 | 0.00 | 1.24 | 1.24 | 99 | 1006.9 |
| 20260506182017 | 8 | 334 | 0.0 | 0.0 | 0.00 | 1.24 | 1.24 | 99 | 1007.0 |
| 20260506181515 | 9 | 18 | 6.4 | 11.3 | 0.00 | 1.24 | 1.24 | 98 | 1006.8 |
| 20260506181011 | 9 | 299 | 3.2 | 3.2 | 0.00 | 1.24 | 1.24 | 98 | 1007.0 |
| 20260506180508 | 10 | 325 | 4.8 | 4.8 | 0.00 | 1.24 | 1.24 | 98 | 1006.7 |
| 20260506180005 | 10 | 309 | 8.0 | 12.9 | 0.13 | 1.24 | 1.24 | 98 | 1006.5 |
| 20260506175501 | 10 | 4 | 4.8 | 8.0 | 0.13 | 1.24 | 1.24 | 98 | 1006.5 |
| 20260506174957 | 11 | 355 | 6.4 | 8.0 | 0.00 | 1.22 | 1.22 | 98 | 1006.4 |
| 20260506174456 | 13 | 44 | 1.6 | 4.8 | 0.00 | 1.22 | 1.22 | 98 | 1006.0 |
| 20260506173952 | 13 | 306 | 1.6 | 3.2 | 0.00 | 1.22 | 1.22 | 98 | 1006.1 |
| 20260506173450 | 13 | 285 | 3.2 | 3.2 | 0.00 | 1.22 | 1.22 | 98 | 1006.3 |
| 20260506172946 | 13 | 234 | 4.8 | 8.0 | 0.00 | 1.22 | 1.22 | 98 | 1006.3 |
| 20260506172444 | 13 | 257 | 6.4 | 9.7 | 0.00 | 1.22 | 1.22 | 98 | 1006.2 |
| 20260506171940 | 13 | 186 | 4.8 | 9.7 | 0.00 | 1.22 | 1.22 | 98 | 1006.1 |
| 20260506171437 | 13 | 169 | 6.4 | 8.0 | 0.18 | 1.22 | 1.22 | 98 | 1006.2 |
| 20260506170935 | 13 | 230 | 4.8 | 8.0 | 0.18 | 1.22 | 1.22 | 98 | 1006.3 |
| 20260506170431 | 13 | 190 | 6.4 | 8.0 | 0.00 | 1.19 | 1.19 | 98 | 1006.2 |
| 20260506165930 | 13 | 301 | 1.6 | 1.6 | 0.00 | 1.19 | 1.19 | 98 | 1006.4 |
| 20260506165428 | 13 | 216 | 8.0 | 9.7 | 0.00 | 1.19 | 1.19 | 98 | 1006.5 |
| 20260506164924 | 13 | 180 | 4.8 | 4.8 | 0.00 | 1.19 | 1.19 | 98 | 1006.4 |
| 20260506164421 | 13 | 228 | 6.4 | 11.3 | 0.00 | 1.19 | 1.19 | 97 | 1006.5 |
| 20260506163919 | 13 | 292 | 3.2 | 3.2 | 0.13 | 1.19 | 1.19 | 97 | 1006.5 |
| 20260506163413 | 13 | 259 | 9.7 | 11.3 | 0.13 | 1.19 | 1.19 | 97 | 1006.5 |
| 20260506162908 | 13 | 220 | 8.0 | 11.3 | 0.13 | 1.19 | 1.19 | 97 | 1006.3 |
| 20260506162407 | 13 | 215 | 8.0 | 9.7 | 0.00 | 1.17 | 1.17 | 97 | 1006.2 |
| 20260506161904 | 13 | 160 | 12.9 | 16.1 | 0.00 | 1.17 | 1.17 | 97 | 1006.4 |
| 20260506161402 | 12 | 239 | 4.8 | 9.7 | 0.00 | 1.17 | 1.17 | 97 | 1006.4 |
| 20260506160859 | 12 | 170 | 8.0 | 9.7 | 0.18 | 1.17 | 1.17 | 97 | 1006.9 |
| 20260506160355 | 12 | 190 | 8.0 | 9.7 | 0.18 | 1.17 | 1.17 | 97 | 1006.5 |
| 20260506155854 | 12 | 207 | 6.4 | 9.7 | 0.00 | 1.14 | 1.14 | 97 | 1006.7 |
| 20260506155351 | 12 | 141 | 1.6 | 3.2 | 0.00 | 1.14 | 1.14 | 97 | 1006.5 |
| 20260506153508 | 12 | 179 | 4.8 | 9.7 | 0.18 | 1.12 | 1.12 | 96 | 1006.5 |
| 20260506153005 | 12 | 180 | 6.4 | 14.5 | 0.36 | 1.12 | 1.12 | 96 | 1006.7 |
| 20260506152502 | 12 | 286 | 11.3 | 14.5 | 0.30 | 1.09 | 1.09 | 96 | 1006.9 |
| 20260506152000 | 12 | 163 | 8.0 | 9.7 | 0.30 | 1.07 | 1.07 | 96 | 1006.8 |
| 20260506151457 | 12 | 169 | 11.3 | 14.5 | 0.18 | 1.04 | 1.04 | 96 | 1006.7 |
| 20260506150955 | 12 | 148 | 4.8 | 4.8 | 0.30 | 1.04 | 1.04 | 96 | 1006.8 |
| 20260506150450 | 12 | 154 | 4.8 | 8.0 | 0.13 | 1.02 | 1.02 | 95 | 1006.7 |
| 20260506145948 | 12 | 127 | 9.7 | 11.3 | 0.00 | 0.99 | 0.99 | 95 | 1006.7 |
| 20260506145444 | 12 | 172 | 9.7 | 11.3 | 0.18 | 0.99 | 0.99 | 94 | 1006.5 |
| 20260506144942 | 12 | 188 | 14.5 | 14.5 | 0.18 | 0.99 | 0.99 | 94 | 1006.5 |
| 20260506144438 | 12 | 128 | 3.2 | 4.8 | 0.13 | 0.97 | 0.97 | 95 | 1006.7 |
| 20260506143937 | 12 | 159 | 6.4 | 8.0 | 0.13 | 0.97 | 0.97 | 95 | 1006.8 |
| 20260506143433 | 12 | 260 | 8.0 | 9.7 | 0.00 | 0.94 | 0.94 | 95 | 1006.8 |
| 20260506142931 | 12 | 175 | 6.4 | 9.7 | 0.00 | 0.94 | 0.94 | 95 | 1006.7 |
| 20260506142429 | 12 | 166 | 6.4 | 9.7 | 0.18 | 0.94 | 0.94 | 95 | 1006.7 |
| 20260506141927 | 12 | 182 | 3.2 | 3.2 | 0.18 | 0.94 | 0.94 | 95 | 1006.5 |
| 20260506141425 | 12 | 190 | 8.0 | 9.7 | 0.13 | 0.91 | 0.91 | 96 | 1006.7 |
| 20260506140923 | 12 | 175 | 4.8 | 9.7 | 0.13 | 0.91 | 0.91 | 96 | 1006.7 |
| 20260506140419 | 12 | 164 | 6.4 | 9.7 | 0.18 | 0.89 | 0.89 | 96 | 1006.8 |
| 20260506135916 | 12 | 162 | 8.0 | 9.7 | 0.30 | 0.89 | 0.89 | 96 | 1006.8 |
| 20260506135414 | 12 | 186 | 6.4 | 8.0 | 0.30 | 0.86 | 0.86 | 96 | 1006.8 |
| 20260506134909 | 12 | 145 | 8.0 | 9.7 | 0.30 | 0.84 | 0.84 | 96 | 1007.1 |
| 20260506134406 | 12 | 165 | 11.3 | 11.3 | 0.30 | 0.81 | 0.81 | 96 | 1007.0 |
| 20260506133903 | 12 | 161 | 6.4 | 8.0 | 0.36 | 0.79 | 0.79 | 96 | 1007.3 |
| 20260506133359 | 12 | 158 | 6.4 | 9.7 | 0.48 | 0.76 | 0.76 | 96 | 1007.3 |
| 20260506132856 | 12 | 159 | 9.7 | 12.9 | 0.43 | 0.74 | 0.74 | 96 | 1007.3 |
| 20260506132353 | 12 | 160 | 6.4 | 8.0 | 0.43 | 0.69 | 0.69 | 96 | 1007.4 |
| 20260506131852 | 12 | 171 | 6.4 | 8.0 | 0.61 | 0.66 | 0.66 | 96 | 1007.6 |
| 20260506131347 | 12 | 231 | 4.8 | 8.0 | 0.61 | 0.61 | 0.61 | 96 | 1007.7 |
| 20260506130845 | 12 | 165 | 4.8 | 8.0 | 0.71 | 0.58 | 0.58 | 96 | 1007.6 |
| 20260506130341 | 12 | 165 | 14.5 | 14.5 | 0.66 | 0.51 | 0.51 | 95 | 1007.6 |
| 20260506125839 | 12 | 264 | 3.2 | 3.2 | 0.48 | 0.46 | 0.46 | 95 | 1007.9 |
| 20260506125337 | 12 | 159 | 4.8 | 4.8 | 0.30 | 0.41 | 0.41 | 95 | 1007.6 |
| 20260506124835 | 12 | 174 | 4.8 | 8.0 | 0.48 | 0.38 | 0.38 | 95 | 1007.6 |
| 20260506124332 | 12 | 196 | 3.2 | 4.8 | 0.43 | 0.36 | 0.36 | 94 | 1007.4 |
| 20260506123829 | 12 | 149 | 9.7 | 11.3 | 0.30 | 0.30 | 0.30 | 94 | 1007.1 |
| 20260506123328 | 12 | 173 | 8.0 | 9.7 | 0.18 | 0.28 | 0.28 | 94 | 1007.1 |
| 20260506122825 | 12 | 182 | 8.0 | 11.3 | 0.13 | 0.25 | 0.25 | 95 | 1007.1 |
| 20260506122321 | 12 | 248 | 4.8 | 4.8 | 0.13 | 0.25 | 0.25 | 95 | 1007.2 |
| 20260506121820 | 12 | 272 | 1.6 | 1.6 | 0.00 | 0.23 | 0.23 | 95 | 1007.2 |
| 20260506121316 | 12 | 215 | 6.4 | 8.0 | 0.00 | 0.23 | 0.23 | 95 | 1007.2 |
| 20260506120814 | 12 | 288 | 0.0 | 0.0 | 0.18 | 0.23 | 0.23 | 95 | 1007.2 |
| 20260506120311 | 12 | 244 | 3.2 | 3.2 | 0.18 | 0.23 | 0.23 | 95 | 1007.6 |
| 20260506115809 | 12 | 324 | 1.6 | 3.2 | 0.00 | 0.20 | 0.20 | 94 | 1007.4 |
| 20260506115307 | 12 | 307 | 0.0 | 0.0 | 0.00 | 0.20 | 0.20 | 94 | 1007.6 |
| 20260506114804 | 12 | 234 | 4.8 | 4.8 | 0.00 | 0.20 | 0.20 | 93 | 1007.2 |
| 20260506114302 | 12 | 276 | 1.6 | 1.6 | 0.13 | 0.20 | 0.20 | 93 | 1007.5 |
| 20260506113800 | 12 | 308 | 1.6 | 1.6 | 0.13 | 0.20 | 0.20 | 94 | 1007.6 |
| 20260506113258 | 12 | 319 | 0.0 | 0.0 | 0.00 | 0.18 | 0.18 | 95 | 1007.5 |
| 20260506112754 | 12 | 339 | 0.0 | 0.0 | 0.00 | 0.18 | 0.18 | 95 | 1007.6 |
| 20260506112251 | 12 | 317 | 1.6 | 1.6 | 0.00 | 0.18 | 0.18 | 95 | 1007.7 |
| 20260506111748 | 12 | 332 | 0.0 | 0.0 | 0.00 | 0.18 | 0.18 | 94 | 1007.3 |
| 20260506111247 | 12 | 331 | 0.0 | 0.0 | 0.18 | 0.18 | 0.18 | 94 | 1007.6 |
| 20260506110743 | 12 | 322 | 0.0 | 1.6 | 0.00 | 0.15 | 0.15 | 93 | 1007.5 |
| 20260506110241 | 12 | 263 | 1.6 | 3.2 | 0.00 | 0.15 | 0.15 | 93 | 1007.5 |
| 20260506105737 | 12 | 288 | 1.6 | 1.6 | 0.18 | 0.15 | 0.15 | 93 | 1007.7 |
| 20260506105234 | 12 | 22 | 1.6 | 1.6 | 0.18 | 0.15 | 0.15 | 94 | 1007.7 |
| 20260506104732 | 11 | 171 | 4.8 | 4.8 | 0.13 | 0.13 | 0.13 | 96 | 1007.8 |
| 20260506104229 | 11 | 343 | 0.0 | 0.0 | 0.13 | 0.13 | 0.13 | 97 | 1007.7 |
| 20260506103726 | 11 | 295 | 1.6 | 1.6 | 0.30 | 0.13 | 0.13 | 97 | 1007.9 |
| 20260506103224 | 11 | 302 | 1.6 | 3.2 | 0.18 | 0.10 | 0.10 | 97 | 1007.6 |
| 20260506102721 | 11 | 327 | 0.0 | 0.0 | 0.13 | 0.08 | 0.08 | 97 | 1007.4 |
| 20260506102220 | 11 | 336 | 0.0 | 0.0 | 0.13 | 0.08 | 0.08 | 97 | 1007.5 |
| 20260506101716 | 11 | 335 | 0.0 | 0.0 | 0.18 | 0.05 | 0.05 | 97 | 1007.3 |
| 20260506101212 | 11 | 327 | 1.6 | 1.6 | 0.18 | 0.05 | 0.05 | 97 | 1007.4 |
| 20260506100711 | 10 | 346 | 0.0 | 0.0 | 0.00 | 0.03 | 0.03 | 97 | 1007.3 |
| 20260506100208 | 10 | 347 | 0.0 | 0.0 | 0.00 | 0.03 | 0.03 | 97 | 1007.2 |
| 20260506095707 | 10 | 343 | 0.0 | 0.0 | 0.00 | 0.03 | 0.03 | 97 | 1007.1 |
| 20260506095203 | 10 | 343 | 0.0 | 0.0 | 0.00 | 0.03 | 0.03 | 96 | 1007.3 |
| 20260506094700 | 10 | 342 | 0.0 | 0.0 | 0.00 | 0.03 | 0.03 | 96 | 1007.3 |
| 20260506094158 | 10 | 9 | 1.6 | 1.6 | 0.00 | 0.03 | 0.03 | 96 | 1007.2 |
| 20260506093657 | 10 | 341 | 1.6 | 1.6 | 0.00 | 0.03 | 0.03 | 96 | 1007.3 |
| 20260506093153 | 10 | 348 | 0.0 | 1.6 | 0.00 | 0.03 | 0.03 | 96 | 1007.1 |
| 20260506092651 | 10 | 355 | 1.6 | 1.6 | 0.00 | 0.03 | 0.03 | 96 | 1007.2 |
| 20260506092148 | 10 | 342 | 0.0 | 0.0 | 0.00 | 0.03 | 0.03 | 96 | 1007.4 |
| 20260506091646 | 10 | 333 | 0.0 | 0.0 | 0.00 | 0.03 | 0.03 | 96 | 1007.3 |
| 20260506091143 | 10 | 344 | 0.0 | 0.0 | 0.13 | 0.03 | 0.03 | 96 | 1007.4 |
| 20260506090641 | 10 | 334 | 0.0 | 0.0 | 0.00 | 0.00 | 0.00 | 96 | 1007.4 |
| 20260506090137 | 10 | 336 | 0.0 | 0.0 | 0.00 | 0.00 | 0.00 | 96 | 1007.6 |
| 20260506085634 | 10 | 328 | 0.0 | 0.0 | 0.00 | 0.00 | 0.00 | 95 | 1007.8 |
| 20260506085130 | 10 | 288 | 0.0 | 1.6 | 0.00 | 0.00 | 0.00 | 95 | 1007.6 |
| 20260506084627 | 10 | 10 | 0.0 | 0.0 | 0.00 | 0.00 | 0.00 | 95 | 1007.8 |
| 20260506084124 | 10 | 74 | 1.6 | 1.6 | 0.00 | 0.00 | 0.00 | 94 | 1008.0 |
| 20260506083621 | 10 | 330 | 0.0 | 0.0 | 0.00 | 0.00 | 0.00 | 94 | 1007.7 |
| 20260506083119 | 10 | 347 | 0.0 | 0.0 | 0.00 | 0.00 | 0.00 | 93 | 1007.9 |
| 20260506082615 | 10 | 342 | 0.0 | 0.0 | 0.00 | 0.00 | 0.00 | 93 | 1007.7 |
| 20260506082111 | 10 | 320 | 0.0 | 0.0 | 0.00 | 0.00 | 0.00 | 93 | 1007.7 |
| 20260506081609 | 10 | 337 | 0.0 | 0.0 | 0.00 | 0.00 | 0.00 | 92 | 1007.7 |
| 20260506081106 | 10 | 339 | 0.0 | 0.0 | 0.00 | 0.00 | 0.00 | 92 | 1007.5 |
| 20260506080604 | 10 | 340 | 0.0 | 0.0 | 0.00 | 0.00 | 0.00 | 92 | 1007.7 |
| 20260506073044 | 11 | 347 | 0.0 | 0.0 | 0.00 | 0.00 | 0.00 | 90 | 1007.7 |
| 20260506072541 | 11 | 334 | 0.0 | 1.6 | 0.00 | 0.00 | 0.00 | 90 | 1007.8 |
| 20260506072039 | 11 | 342 | 0.0 | 0.0 | 0.00 | 0.00 | 0.00 | 90 | 1007.6 |
| 20260506071537 | 11 | 338 | 0.0 | 0.0 | 0.00 | 0.00 | 0.00 | 91 | 1007.7 |
| 20260506071034 | 11 | 338 | 0.0 | 0.0 | 0.00 | 0.00 | 0.00 | 90 | 1008.0 |
| 20260506070531 | 11 | 337 | 0.0 | 0.0 | 0.00 | 0.00 | 0.00 | 90 | 1007.7 |
| 20260506062508 | 11 | 328 | 1.6 | 1.6 | 0.00 | 0.00 | 0.00 | 89 | 1008.5 |
| 20260506062005 | 11 | 4 | 0.0 | 0.0 | 0.00 | 0.00 | 0.00 | 90 | 1008.3 |
| 20260506061501 | 11 | 295 | 4.8 | 4.8 | 0.00 | 0.00 | 0.00 | 89 | 1008.6 |
| 20260506060959 | 11 | 108 | 3.2 | 3.2 | 0.00 | 0.00 | 0.00 | 89 | 1008.5 |
| 20260506060457 | 11 | 319 | 0.0 | 0.0 | 0.00 | 0.00 | 0.00 | 88 | 1008.7 |
| 20260506050925 | 10 | 15 | 1.6 | 1.6 | 0.00 | 0.00 | 0.00 | 88 | 1009.7 |
| 20260506050423 | 11 | 343 | 0.0 | 0.0 | 0.00 | 0.00 | 0.00 | 87 | 1009.9 |
| 20260506044914 | 11 | 355 | 0.0 | 1.6 | 0.00 | 0.00 | 0.00 | 88 | 1009.7 |
| 20260506044412 | 11 | 330 | 0.0 | 0.0 | 0.00 | 0.00 | 0.00 | 88 | 1009.7 |
| 20260506043909 | 11 | 16 | 0.0 | 0.0 | 0.00 | 0.00 | 0.00 | 89 | 1009.7 |
| 20260506043406 | 11 | 346 | 0.0 | 0.0 | 0.00 | 0.00 | 0.00 | 89 | 1009.4 |
| 20260506042904 | 11 | 18 | 3.2 | 3.2 | 0.00 | 0.00 | 0.00 | 89 | 1009.7 |
| 20260506042403 | 10 | 327 | 0.0 | 1.6 | 0.00 | 0.00 | 0.00 | 89 | 1009.5 |
| 20260506041901 | 10 | 7 | 0.0 | 0.0 | 0.00 | 0.00 | 0.00 | 89 | 1009.7 |
| 20260506041357 | 11 | 349 | 0.0 | 0.0 | 0.00 | 0.00 | 0.00 | 89 | 1010.0 |
| 20260506040855 | 11 | 334 | 0.0 | 0.0 | 0.00 | 0.00 | 0.00 | 88 | 1009.8 |
| 20260506040352 | 11 | 345 | 0.0 | 0.0 | 0.00 | 0.00 | 0.00 | 87 | 1010.0 |
| 20260506035848 | 11 | 354 | 0.0 | 0.0 | 0.00 | 0.43 | 0.43 | 87 | 1010.0 |
| 20260506035346 | 11 | 353 | 0.0 | 0.0 | 0.00 | 0.43 | 0.43 | 88 | 1010.1 |
| 20260506034843 | 11 | 349 | 0.0 | 0.0 | 0.00 | 0.43 | 0.43 | 89 | 1010.2 |
| 20260506034340 | 11 | 355 | 0.0 | 0.0 | 0.00 | 0.43 | 0.43 | 89 | 1010.1 |
| 20260506033837 | 11 | 8 | 1.6 | 1.6 | 0.00 | 0.43 | 0.43 | 89 | 1010.1 |
| 20260506033334 | 12 | 345 | 0.0 | 1.6 | 0.00 | 0.43 | 0.43 | 88 | 1010.0 |
| 20260506032831 | 12 | 339 | 0.0 | 0.0 | 0.00 | 0.43 | 0.43 | 88 | 1009.9 |
| 20260506032327 | 12 | 44 | 0.0 | 1.6 | 0.00 | 0.43 | 0.43 | 87 | 1009.8 |
| 20260506031825 | 12 | 357 | 1.6 | 1.6 | 0.00 | 0.43 | 0.43 | 86 | 1010.1 |
| 20260506031322 | 12 | 358 | 4.8 | 8.0 | 0.00 | 0.43 | 0.43 | 85 | 1010.1 |
| 20260506030819 | 12 | 37 | 4.8 | 4.8 | 0.00 | 0.43 | 0.43 | 85 | 1010.1 |
| 20260506030317 | 12 | 328 | 0.0 | 1.6 | 0.00 | 0.43 | 0.43 | 86 | 1010.1 |
| 20260506025814 | 12 | 38 | 3.2 | 4.8 | 0.00 | 0.43 | 0.43 | 87 | 1010.0 |
| 20260506025310 | 12 | 1 | 1.6 | 3.2 | 0.00 | 0.43 | 0.43 | 88 | 1009.9 |
| 20260506024807 | 12 | 17 | 0.0 | 1.6 | 0.00 | 0.43 | 0.43 | 89 | 1009.9 |
| 20260506024304 | 12 | 348 | 0.0 | 0.0 | 0.00 | 0.43 | 0.43 | 89 | 1010.0 |
| 20260506023800 | 13 | 18 | 1.6 | 1.6 | 0.00 | 0.43 | 0.43 | 89 | 1010.2 |
| 20260506023257 | 13 | 23 | 8.0 | 9.7 | 0.00 | 0.43 | 0.43 | 90 | 1010.0 |
| 20260506022753 | 13 | 11 | 3.2 | 3.2 | 0.00 | 0.43 | 0.43 | 91 | 1010.1 |
| 20260506022252 | 13 | 3 | 6.4 | 8.0 | 0.00 | 0.43 | 0.43 | 91 | 1009.9 |
| 20260506021749 | 13 | 32 | 3.2 | 4.8 | 0.00 | 0.43 | 0.43 | 91 | 1009.8 |
| 20260506021246 | 13 | 358 | 3.2 | 4.8 | 0.00 | 0.43 | 0.43 | 91 | 1009.5 |
| 20260506020743 | 14 | 338 | 0.0 | 0.0 | 0.00 | 0.43 | 0.43 | 91 | 1009.6 |
| 20260506020241 | 14 | 353 | 4.8 | 4.8 | 0.00 | 0.43 | 0.43 | 91 | 1009.5 |
| 20260506015738 | 14 | 27 | 3.2 | 4.8 | 0.00 | 0.43 | 0.43 | 92 | 1009.1 |
| 20260506015236 | 14 | 355 | 1.6 | 3.2 | 0.00 | 0.43 | 0.43 | 92 | 1009.6 |
| 20260506014732 | 14 | 5 | 0.0 | 1.6 | 0.00 | 0.43 | 0.43 | 92 | 1009.6 |
| 20260506014229 | 14 | 11 | 1.6 | 1.6 | 0.00 | 0.43 | 0.43 | 92 | 1009.6 |
| 20260506013726 | 14 | 335 | 0.0 | 0.0 | 0.00 | 0.43 | 0.43 | 92 | 1009.7 |
| 20260506013223 | 15 | 341 | 0.0 | 0.0 | 0.00 | 0.43 | 0.43 | 90 | 1009.5 |
| 20260506012719 | 15 | 330 | 0.0 | 0.0 | 0.00 | 0.43 | 0.43 | 89 | 1009.0 |
| 20260506012216 | 15 | 349 | 0.0 | 0.0 | 0.00 | 0.43 | 0.43 | 88 | 1009.0 |
| 20260506011714 | 15 | 356 | 0.0 | 0.0 | 0.00 | 0.43 | 0.43 | 89 | 1009.3 |
| 20260506011209 | 15 | 286 | 1.6 | 1.6 | 0.00 | 0.43 | 0.43 | 88 | 1009.1 |
| 20260506010708 | 15 | 336 | 0.0 | 0.0 | 0.00 | 0.43 | 0.43 | 89 | 1009.3 |
| 20260506010205 | 15 | 340 | 0.0 | 0.0 | 0.00 | 0.43 | 0.43 | 92 | 1009.0 |
| 20260506005702 | 14 | 352 | 1.6 | 1.6 | 0.00 | 0.43 | 0.43 | 94 | 1008.8 |
| 20260506005159 | 14 | 316 | 0.0 | 0.0 | 0.00 | 0.43 | 0.43 | 94 | 1008.7 |
| 20260506004655 | 14 | 321 | 0.0 | 0.0 | 0.00 | 0.43 | 0.43 | 94 | 1008.5 |
| 20260506004153 | 14 | 320 | 0.0 | 0.0 | 0.00 | 0.43 | 0.43 | 94 | 1008.3 |
| 20260506003649 | 14 | 321 | 0.0 | 0.0 | 0.00 | 0.43 | 0.43 | 94 | 1008.4 |
| 20260506003145 | 14 | 320 | 0.0 | 0.0 | 0.00 | 0.43 | 0.43 | 94 | 1008.5 |
| 20260506002641 | 14 | 321 | 0.0 | 0.0 | 0.00 | 0.43 | 0.43 | 94 | 1008.3 |
| 20260506002137 | 14 | 320 | 0.0 | 0.0 | 0.00 | 0.43 | 0.43 | 94 | 1008.3 |
| 20260506001633 | 14 | 320 | 0.0 | 0.0 | 0.00 | 0.43 | 0.43 | 94 | 1008.3 |
| 20260506001131 | 14 | 320 | 0.0 | 0.0 | 0.00 | 0.43 | 0.43 | 93 | 1008.1 |
| 20260506000628 | 14 | 320 | 0.0 | 0.0 | 0.00 | 0.43 | 0.43 | 93 | 1008.0 |
| 20260506000125 | 14 | 320 | 0.0 | 0.0 | 0.00 | 0.43 | 0.43 | 93 | 1008.0 |
| 20260505235623 | 15 | 320 | 0.0 | 0.0 | 0.00 | 0.43 | 0.43 | 94 | 1008.0 |
| 20260505235120 | 15 | 320 | 1.6 | 1.6 | 0.00 | 0.43 | 0.43 | 94 | 1008.0 |
| 20260505234617 | 15 | 318 | 0.0 | 0.0 | 0.00 | 0.43 | 0.43 | 93 | 1008.1 |
| 20260505234113 | 15 | 322 | 0.0 | 0.0 | 0.00 | 0.43 | 0.43 | 93 | 1008.0 |
| 20260505233611 | 15 | 323 | 0.0 | 0.0 | 0.00 | 0.43 | 0.43 | 93 | 1007.9 |
| 20260505233108 | 15 | 321 | 0.0 | 0.0 | 0.00 | 0.43 | 0.43 | 93 | 1007.9 |
| 20260505232606 | 15 | 326 | 0.0 | 0.0 | 0.00 | 0.43 | 0.43 | 92 | 1007.8 |